User: anonymous   Login
Location: Lango�lan
(48.1202°N, 3.2340°W)
Time: 22:28:51
(UTC+00:00)
Language:

Cosmos 1908 - Orbit

View from above orbital plane
View from above orbital plane
View from above satellite
View from above satellite

Ground track
Ground track

The orbit data is extracted from the following two-line orbital elements,

1 18748U 88001A   19339.48959916  .00000408  00000-0  20260-4 0  9997
2 18748  82.4738 250.9718 0014132  20.5882 339.5916 15.14760960742165
Epoch (UTC): 05 December 2019 11:45:01
Eccentricity: 0.0014132
inclination: 82.4738°
perigee height: 512 km
apogee height: 531 km
right ascension of ascending node: 250.9718°
argument of perigee: 20.5882°
revolutions per day: 15.14760960
mean anomaly at epoch: 339.5916°
orbit number at epoch: 74216

The dashed part of the orbit path shows where the satellite is in the earth's shadow,  

DLR